Year,Month,Day,Hour,Minute,Value (Times are PST for temperature in C)
2010,10,19,00,00,8.20
2010,10,19,00,01,8.20
2010,10,19,00,02,8.10
2010,10,19,00,03,8.10
2010,10,19,00,04,8.10
2010,10,19,00,05,8.10
2010,10,19,00,06,8.00
2010,10,19,00,07,8.00
2010,10,19,00,08,8.00
2010,10,19,00,09,8.00
2010,10,19,00,10,8.00
2010,10,19,00,11,8.10
2010,10,19,00,12,8.10
2010,10,19,00,13,8.10
2010,10,19,00,14,8.10
2010,10,19,00,15,8.10
2010,10,19,00,16,8.10
2010,10,19,00,17,8.10
2010,10,19,00,18,8.00
2010,10,19,00,19,8.00
2010,10,19,00,20,8.00
2010,10,19,00,21,8.00
2010,10,19,00,22,8.00
2010,10,19,00,23,8.00
2010,10,19,00,24,8.00
2010,10,19,00,25,7.90
2010,10,19,00,26,7.90
2010,10,19,00,27,7.90
2010,10,19,00,28,7.90
2010,10,19,00,29,7.90
2010,10,19,00,30,7.90
2010,10,19,00,31,7.90
2010,10,19,00,32,7.90
2010,10,19,00,33,7.90
2010,10,19,00,34,7.90
2010,10,19,00,35,7.90
2010,10,19,00,36,7.90
2010,10,19,00,37,7.80
2010,10,19,00,38,7.80
2010,10,19,00,39,7.80
2010,10,19,00,40,7.80
2010,10,19,00,41,7.80
2010,10,19,00,42,7.80
2010,10,19,00,43,7.80
2010,10,19,00,44,7.80
2010,10,19,00,45,7.70
2010,10,19,00,46,7.70
2010,10,19,00,47,7.70
2010,10,19,00,48,7.60
2010,10,19,00,49,7.60
2010,10,19,00,50,7.60
2010,10,19,00,51,7.60
2010,10,19,00,52,7.70
2010,10,19,00,53,7.70
2010,10,19,00,54,7.70
2010,10,19,00,55,7.70
2010,10,19,00,56,7.70
2010,10,19,00,57,7.70
2010,10,19,00,58,7.70
2010,10,19,00,59,7.70
2010,10,19,01,00,7.70
2010,10,19,01,01,7.70
2010,10,19,01,02,7.70
2010,10,19,01,03,7.60
2010,10,19,01,04,7.60
2010,10,19,01,05,7.60
2010,10,19,01,06,7.60
2010,10,19,01,07,7.60
2010,10,19,01,08,7.60
2010,10,19,01,09,7.60
2010,10,19,01,10,7.60
2010,10,19,01,11,7.60
2010,10,19,01,12,7.50
2010,10,19,01,13,7.50
2010,10,19,01,14,7.50
2010,10,19,01,15,7.50
2010,10,19,01,16,7.50
2010,10,19,01,17,7.50
2010,10,19,01,18,7.50
2010,10,19,01,19,7.50
2010,10,19,01,20,7.50
2010,10,19,01,21,7.40
2010,10,19,01,22,7.40
2010,10,19,01,23,7.40
2010,10,19,01,24,7.40
2010,10,19,01,25,7.40
2010,10,19,01,26,7.40
2010,10,19,01,27,7.40
2010,10,19,01,28,7.40
2010,10,19,01,29,7.30
2010,10,19,01,30,7.30
2010,10,19,01,31,7.30
2010,10,19,01,32,7.30
2010,10,19,01,33,7.30
2010,10,19,01,34,7.30
2010,10,19,01,35,7.30
2010,10,19,01,36,7.30
2010,10,19,01,37,7.40
2010,10,19,01,38,7.40
2010,10,19,01,39,7.40
2010,10,19,01,40,7.40
2010,10,19,01,41,7.40
2010,10,19,01,42,7.40
2010,10,19,01,43,7.40
2010,10,19,01,44,7.40
2010,10,19,01,45,7.40
2010,10,19,01,46,7.40
2010,10,19,01,47,7.40
2010,10,19,01,48,7.40
2010,10,19,01,49,7.40
2010,10,19,01,50,7.40
2010,10,19,01,51,7.40
2010,10,19,01,52,7.40
2010,10,19,01,53,7.30
2010,10,19,01,54,7.30
2010,10,19,01,55,7.30
2010,10,19,01,56,7.30
2010,10,19,01,57,7.30
2010,10,19,01,58,7.30
2010,10,19,01,59,7.30
2010,10,19,02,00,7.30
2010,10,19,02,01,7.30
2010,10,19,02,02,7.30
2010,10,19,02,03,7.30
2010,10,19,02,04,7.30
2010,10,19,02,05,7.30
2010,10,19,02,06,7.30
2010,10,19,02,07,7.30
2010,10,19,02,08,7.30
2010,10,19,02,09,7.30
2010,10,19,02,10,7.30
2010,10,19,02,11,7.30
2010,10,19,02,12,7.30
2010,10,19,02,13,7.30
2010,10,19,02,14,7.30
2010,10,19,02,15,7.30
2010,10,19,02,16,7.30
2010,10,19,02,17,7.30
2010,10,19,02,18,7.30
2010,10,19,02,19,7.40
2010,10,19,02,20,7.40
2010,10,19,02,21,7.40
2010,10,19,02,22,7.30
2010,10,19,02,23,7.30
2010,10,19,02,24,7.30
2010,10,19,02,25,7.30
2010,10,19,02,26,7.30
2010,10,19,02,27,7.30
2010,10,19,02,28,7.30
2010,10,19,02,29,7.40
2010,10,19,02,30,7.40
2010,10,19,02,31,7.40
2010,10,19,02,32,7.40
2010,10,19,02,33,7.50
2010,10,19,02,34,7.50
2010,10,19,02,35,7.50
2010,10,19,02,36,7.50
2010,10,19,02,37,7.50
2010,10,19,02,38,7.50
2010,10,19,02,39,7.50
2010,10,19,02,40,7.50
2010,10,19,02,41,7.40
2010,10,19,02,42,7.40
2010,10,19,02,43,7.40
2010,10,19,02,44,7.40
2010,10,19,02,45,7.40
2010,10,19,02,46,7.40
2010,10,19,02,47,7.40
2010,10,19,02,48,7.40
2010,10,19,02,49,7.40
2010,10,19,02,50,7.40
2010,10,19,02,51,7.40
2010,10,19,02,52,7.30
2010,10,19,02,53,7.30
2010,10,19,02,54,7.30
2010,10,19,02,55,7.30
2010,10,19,02,56,7.30
2010,10,19,02,57,7.20
2010,10,19,02,58,7.20
2010,10,19,02,59,7.10
2010,10,19,03,00,7.00
2010,10,19,03,01,7.00
2010,10,19,03,02,6.90
2010,10,19,03,03,6.90
2010,10,19,03,04,6.90
2010,10,19,03,05,6.80
2010,10,19,03,06,6.80
2010,10,19,03,07,6.80
2010,10,19,03,08,6.80
2010,10,19,03,09,6.80
2010,10,19,03,10,6.80
2010,10,19,03,11,6.80
2010,10,19,03,12,6.80
2010,10,19,03,13,6.80
2010,10,19,03,14,6.80
2010,10,19,03,15,6.80
2010,10,19,03,16,6.80
2010,10,19,03,17,6.80
2010,10,19,03,18,6.80
2010,10,19,03,19,6.80
2010,10,19,03,20,6.80
2010,10,19,03,21,6.80
2010,10,19,03,22,6.80
2010,10,19,03,23,6.80
2010,10,19,03,24,6.80
2010,10,19,03,25,6.70
2010,10,19,03,26,6.70
2010,10,19,03,27,6.70
2010,10,19,03,28,6.70
2010,10,19,03,29,6.70
2010,10,19,03,30,6.70
2010,10,19,03,31,6.70
2010,10,19,03,32,6.60
2010,10,19,03,33,6.60
2010,10,19,03,34,6.60
2010,10,19,03,35,6.50
2010,10,19,03,36,6.40
2010,10,19,03,37,6.40
2010,10,19,03,38,6.30
2010,10,19,03,39,6.30
2010,10,19,03,40,6.30
2010,10,19,03,41,6.20
2010,10,19,03,42,6.20
2010,10,19,03,43,6.20
2010,10,19,03,44,6.20
2010,10,19,03,45,6.20
2010,10,19,03,46,6.20
2010,10,19,03,47,6.20
2010,10,19,03,48,6.20
2010,10,19,03,49,6.20
2010,10,19,03,50,6.20
2010,10,19,03,51,6.20
2010,10,19,03,52,6.20
2010,10,19,03,53,6.20
2010,10,19,03,54,6.20
2010,10,19,03,55,6.20
2010,10,19,03,56,6.20
2010,10,19,03,57,6.20
2010,10,19,03,58,6.20
2010,10,19,03,59,6.20
2010,10,19,04,00,6.20
2010,10,19,04,01,6.20
2010,10,19,04,02,6.20
2010,10,19,04,03,6.20
2010,10,19,04,04,6.20
2010,10,19,04,05,6.20
2010,10,19,04,06,6.20
2010,10,19,04,07,6.20
2010,10,19,04,08,6.20
2010,10,19,04,09,6.20
2010,10,19,04,10,6.20
2010,10,19,04,11,6.20
2010,10,19,04,12,6.20
2010,10,19,04,13,6.20
2010,10,19,04,14,6.20
2010,10,19,04,15,6.20
2010,10,19,04,16,6.20
2010,10,19,04,17,6.20
2010,10,19,04,18,6.20
2010,10,19,04,19,6.20
2010,10,19,04,20,6.20
2010,10,19,04,21,6.20
2010,10,19,04,22,6.20
2010,10,19,04,23,6.20
2010,10,19,04,24,6.20
2010,10,19,04,25,6.20
2010,10,19,04,26,6.20
2010,10,19,04,27,6.30
2010,10,19,04,28,6.20
2010,10,19,04,29,6.20
2010,10,19,04,30,6.20
2010,10,19,04,31,6.20
2010,10,19,04,32,6.20
2010,10,19,04,33,6.20
2010,10,19,04,34,6.20
2010,10,19,04,35,6.20
2010,10,19,04,36,6.20
2010,10,19,04,37,6.20
2010,10,19,04,38,6.20
2010,10,19,04,39,6.20
2010,10,19,04,40,6.20
2010,10,19,04,41,6.20
2010,10,19,04,42,6.20
2010,10,19,04,43,6.20
2010,10,19,04,44,6.30
2010,10,19,04,45,6.30
2010,10,19,04,46,6.30
2010,10,19,04,47,6.40
2010,10,19,04,48,6.40
2010,10,19,04,49,6.40
2010,10,19,04,50,6.40
2010,10,19,04,51,6.40
2010,10,19,04,52,6.40
2010,10,19,04,53,6.40
2010,10,19,04,54,6.50
2010,10,19,04,55,6.60
2010,10,19,04,56,6.60
2010,10,19,04,57,6.60
2010,10,19,04,58,6.60
2010,10,19,04,59,6.70
2010,10,19,05,00,6.70
2010,10,19,05,01,6.70
2010,10,19,05,02,6.70
2010,10,19,05,03,6.70
2010,10,19,05,04,6.60
2010,10,19,05,05,6.60
2010,10,19,05,06,6.60
2010,10,19,05,07,6.60
2010,10,19,05,08,6.60
2010,10,19,05,09,6.60
2010,10,19,05,10,6.70
2010,10,19,05,11,6.80
2010,10,19,05,12,6.80
2010,10,19,05,13,6.80
2010,10,19,05,14,6.90
2010,10,19,05,15,6.90
2010,10,19,05,16,7.00
2010,10,19,05,17,7.00
2010,10,19,05,18,7.00
2010,10,19,05,19,7.10
2010,10,19,05,20,7.10
2010,10,19,05,21,7.10
2010,10,19,05,22,7.20
2010,10,19,05,23,7.20
2010,10,19,05,24,7.20
2010,10,19,05,25,7.20
2010,10,19,05,26,7.20
2010,10,19,05,27,7.20
2010,10,19,05,28,7.30
2010,10,19,05,29,7.30
2010,10,19,05,30,7.30
2010,10,19,05,31,7.30
2010,10,19,05,32,7.30
2010,10,19,05,33,7.40
2010,10,19,05,34,7.40
2010,10,19,05,35,7.40
2010,10,19,05,36,7.40
2010,10,19,05,37,7.50
2010,10,19,05,38,7.50
2010,10,19,05,39,7.50
2010,10,19,05,40,7.50
2010,10,19,05,41,7.50
2010,10,19,05,42,7.60
2010,10,19,05,43,7.60
2010,10,19,05,44,7.60
2010,10,19,05,45,7.50
2010,10,19,05,46,7.50
2010,10,19,05,47,7.50
2010,10,19,05,48,7.50
2010,10,19,05,49,7.50
2010,10,19,05,50,7.50
2010,10,19,05,51,7.50
2010,10,19,05,52,7.50
2010,10,19,05,53,7.50
2010,10,19,05,54,7.60
2010,10,19,05,55,7.60
2010,10,19,05,56,7.60
2010,10,19,05,57,7.60
2010,10,19,05,58,7.60
2010,10,19,05,59,7.60
2010,10,19,06,00,7.60
2010,10,19,06,01,7.60
2010,10,19,06,02,7.60
2010,10,19,06,03,7.60
2010,10,19,06,04,7.60
2010,10,19,06,05,7.60
2010,10,19,06,06,7.60
2010,10,19,06,07,7.60
2010,10,19,06,08,7.50
2010,10,19,06,09,7.50
2010,10,19,06,10,7.40
2010,10,19,06,11,7.40
2010,10,19,06,12,7.40
2010,10,19,06,13,7.40
2010,10,19,06,14,7.30
2010,10,19,06,15,7.30
2010,10,19,06,16,7.30
2010,10,19,06,17,7.30
2010,10,19,06,18,7.30
2010,10,19,06,19,7.30
2010,10,19,06,20,7.30
2010,10,19,06,21,7.30
2010,10,19,06,22,7.30
2010,10,19,06,23,7.30
2010,10,19,06,24,7.40
2010,10,19,06,25,7.30
2010,10,19,06,26,7.30
2010,10,19,06,27,7.30
2010,10,19,06,28,7.40
2010,10,19,06,29,7.40
2010,10,19,06,30,7.40
2010,10,19,06,31,7.40
2010,10,19,06,32,7.50
2010,10,19,06,33,7.50
2010,10,19,06,34,7.50
2010,10,19,06,35,7.60
2010,10,19,06,36,7.60
2010,10,19,06,37,7.60
2010,10,19,06,38,7.60
2010,10,19,06,39,7.50
2010,10,19,06,40,7.40
2010,10,19,06,41,7.30
2010,10,19,06,42,7.30
2010,10,19,06,43,7.20
2010,10,19,06,44,7.10
2010,10,19,06,45,7.10
2010,10,19,06,46,7.00
2010,10,19,06,47,7.00
2010,10,19,06,48,6.90
2010,10,19,06,49,6.90
2010,10,19,06,50,6.90
2010,10,19,06,51,6.80
2010,10,19,06,52,6.80
2010,10,19,06,53,6.80
2010,10,19,06,54,6.80
2010,10,19,06,55,6.80
2010,10,19,06,56,6.80
2010,10,19,06,57,6.80
2010,10,19,06,58,6.80
2010,10,19,06,59,6.80
2010,10,19,07,00,6.80
2010,10,19,07,01,6.80
2010,10,19,07,02,6.90
2010,10,19,07,03,6.90
2010,10,19,07,04,6.90
2010,10,19,07,05,6.90
2010,10,19,07,06,7.00
2010,10,19,07,07,7.00
2010,10,19,07,08,7.00
2010,10,19,07,09,7.00
2010,10,19,07,10,7.00
2010,10,19,07,11,7.00
2010,10,19,07,12,7.00
2010,10,19,07,13,7.00
2010,10,19,07,14,6.90
2010,10,19,07,15,6.90
2010,10,19,07,16,6.90
2010,10,19,07,17,6.90
2010,10,19,07,18,6.90
2010,10,19,07,19,6.90
2010,10,19,07,20,6.90
2010,10,19,07,21,6.90
2010,10,19,07,22,7.00
2010,10,19,07,23,7.00
2010,10,19,07,24,7.10
2010,10,19,07,25,7.10
2010,10,19,07,26,7.10
2010,10,19,07,27,7.10
2010,10,19,07,28,7.10
2010,10,19,07,29,7.10
2010,10,19,07,30,7.10
2010,10,19,07,31,7.10
2010,10,19,07,32,7.10
2010,10,19,07,33,7.10
2010,10,19,07,34,7.10
2010,10,19,07,35,7.10
2010,10,19,07,36,7.10
2010,10,19,07,37,7.10
2010,10,19,07,38,7.10
2010,10,19,07,39,7.20
2010,10,19,07,40,7.20
2010,10,19,07,41,7.30
2010,10,19,07,42,7.30
2010,10,19,07,43,7.30
2010,10,19,07,44,7.30
2010,10,19,07,45,7.30
2010,10,19,07,46,7.40
2010,10,19,07,47,7.30
2010,10,19,07,48,7.30
2010,10,19,07,49,7.30
2010,10,19,07,50,7.30
2010,10,19,07,51,7.20
2010,10,19,07,52,7.20
2010,10,19,07,53,7.20
2010,10,19,07,54,7.20
2010,10,19,07,55,7.20
2010,10,19,07,56,7.20
2010,10,19,07,57,7.20
2010,10,19,07,58,7.20
2010,10,19,07,59,7.30
2010,10,19,08,00,7.30
2010,10,19,08,01,7.30
2010,10,19,08,02,7.30
2010,10,19,08,03,7.30
2010,10,19,08,04,7.40
2010,10,19,08,05,7.40
2010,10,19,08,06,7.40
2010,10,19,08,07,7.40
2010,10,19,08,08,7.40
2010,10,19,08,09,7.40
2010,10,19,08,10,7.50
2010,10,19,08,11,7.50
2010,10,19,08,12,7.50
2010,10,19,08,13,7.50
2010,10,19,08,14,7.60
2010,10,19,08,15,7.60
2010,10,19,08,16,7.60
2010,10,19,08,17,7.60
2010,10,19,08,18,7.50
2010,10,19,08,19,7.50
2010,10,19,08,20,7.50
2010,10,19,08,21,7.50
2010,10,19,08,22,7.60
2010,10,19,08,23,7.60
2010,10,19,08,24,7.60
2010,10,19,08,25,7.60
2010,10,19,08,26,7.70
2010,10,19,08,27,7.70
2010,10,19,08,28,7.80
2010,10,19,08,29,7.90
2010,10,19,08,30,7.90
2010,10,19,08,31,7.90
2010,10,19,08,32,8.00
2010,10,19,08,33,8.00
2010,10,19,08,34,8.10
2010,10,19,08,35,8.20
2010,10,19,08,36,8.20
2010,10,19,08,37,8.20
2010,10,19,08,38,8.20
2010,10,19,08,39,8.30
2010,10,19,08,40,8.30
2010,10,19,08,41,8.40
2010,10,19,08,42,8.50
2010,10,19,08,43,8.50
2010,10,19,08,44,8.50
2010,10,19,08,45,8.60
2010,10,19,08,46,8.60
2010,10,19,08,47,8.60
2010,10,19,08,48,8.60
2010,10,19,08,49,8.50
2010,10,19,08,50,8.50
2010,10,19,08,51,8.50
2010,10,19,08,52,8.50
2010,10,19,08,53,8.50
2010,10,19,08,54,8.50
2010,10,19,08,55,8.50
2010,10,19,08,56,8.60
2010,10,19,08,57,8.60
2010,10,19,08,58,8.60
2010,10,19,08,59,8.60
2010,10,19,09,00,8.60
2010,10,19,09,01,8.60
2010,10,19,09,02,8.60
2010,10,19,09,03,8.70
2010,10,19,09,04,8.70
2010,10,19,09,05,8.80
2010,10,19,09,06,8.90
2010,10,19,09,07,8.90
2010,10,19,09,08,9.00
2010,10,19,09,09,9.10
2010,10,19,09,10,9.20
2010,10,19,09,11,9.20
2010,10,19,09,12,9.20
2010,10,19,09,13,9.20
2010,10,19,09,14,9.30
2010,10,19,09,15,9.40
2010,10,19,09,16,9.40
2010,10,19,09,17,9.50
2010,10,19,09,18,9.50
2010,10,19,09,19,9.60
2010,10,19,09,20,9.60
2010,10,19,09,21,9.70
2010,10,19,09,22,9.70
2010,10,19,09,23,9.70
2010,10,19,09,24,9.70
2010,10,19,09,25,9.70
2010,10,19,09,26,9.70
2010,10,19,09,27,9.80
2010,10,19,09,28,9.80
2010,10,19,09,29,9.90
2010,10,19,09,30,9.90
2010,10,19,09,31,9.90
2010,10,19,09,32,9.90
2010,10,19,09,33,9.90
2010,10,19,09,34,10.10
2010,10,19,09,35,10.10
2010,10,19,09,36,10.10
2010,10,19,09,37,10.20
2010,10,19,09,38,10.30
2010,10,19,09,39,10.30
2010,10,19,09,40,10.40
2010,10,19,09,41,10.40
2010,10,19,09,42,10.40
2010,10,19,09,43,10.60
2010,10,19,09,44,10.70
2010,10,19,09,45,10.80
2010,10,19,09,46,10.90
2010,10,19,09,47,10.90
2010,10,19,09,48,11.00
2010,10,19,09,49,11.10
2010,10,19,09,50,11.20
2010,10,19,09,51,11.20
2010,10,19,09,52,11.40
2010,10,19,09,53,11.40
2010,10,19,09,54,11.40
2010,10,19,09,55,11.40
2010,10,19,09,56,11.40
2010,10,19,09,57,11.40
2010,10,19,09,58,11.40
2010,10,19,09,59,11.40
2010,10,19,10,00,11.40
2010,10,19,10,01,11.40
2010,10,19,10,02,11.30
2010,10,19,10,03,11.30
2010,10,19,10,04,11.20
2010,10,19,10,05,11.20
2010,10,19,10,06,11.10
2010,10,19,10,07,11.10
2010,10,19,10,08,11.10
2010,10,19,10,09,11.10
2010,10,19,10,10,11.10
2010,10,19,10,11,11.10
2010,10,19,10,12,11.20
2010,10,19,10,13,11.20
2010,10,19,10,14,11.20
2010,10,19,10,15,11.30
2010,10,19,10,16,11.40
2010,10,19,10,17,11.40
2010,10,19,10,18,11.50
2010,10,19,10,19,11.60
2010,10,19,10,20,11.60
2010,10,19,10,21,11.60
2010,10,19,10,22,11.70
2010,10,19,10,23,11.70
2010,10,19,10,24,11.80
2010,10,19,10,25,11.80
2010,10,19,10,26,11.80
2010,10,19,10,27,11.90
2010,10,19,10,28,12.00
2010,10,19,10,29,12.10
2010,10,19,10,30,12.20
2010,10,19,10,31,12.30
2010,10,19,10,32,12.30
2010,10,19,10,33,12.30
2010,10,19,10,34,12.30
2010,10,19,10,35,12.30
2010,10,19,10,36,12.40
2010,10,19,10,37,12.40
2010,10,19,10,38,12.50
2010,10,19,10,39,12.60
2010,10,19,10,40,12.70
2010,10,19,10,41,12.70
2010,10,19,10,42,12.60
2010,10,19,10,43,12.70
2010,10,19,10,44,12.70
2010,10,19,10,45,12.70
2010,10,19,10,46,12.70
2010,10,19,10,47,12.70
2010,10,19,10,48,12.80
2010,10,19,10,49,12.80
2010,10,19,10,50,12.90
2010,10,19,10,51,13.00
2010,10,19,10,52,13.00
2010,10,19,10,53,12.90
2010,10,19,10,54,13.00
2010,10,19,10,55,13.00
2010,10,19,10,56,13.00
2010,10,19,10,57,12.90
2010,10,19,10,58,12.90
2010,10,19,10,59,12.90
2010,10,19,11,00,12.90
2010,10,19,11,01,12.90
2010,10,19,11,02,12.90
2010,10,19,11,03,12.90
2010,10,19,11,04,12.90
2010,10,19,11,05,13.00
2010,10,19,11,06,13.00
2010,10,19,11,07,12.90
2010,10,19,11,08,12.90
2010,10,19,11,09,12.90
2010,10,19,11,10,12.90
2010,10,19,11,11,13.00
2010,10,19,11,12,13.10
2010,10,19,11,13,13.10
2010,10,19,11,14,13.20
2010,10,19,11,15,13.10
2010,10,19,11,16,13.10
2010,10,19,11,17,13.00
2010,10,19,11,18,13.00
2010,10,19,11,19,13.00
2010,10,19,11,20,13.00
2010,10,19,11,21,13.00
2010,10,19,11,22,13.00
2010,10,19,11,23,13.00
2010,10,19,11,24,13.00
2010,10,19,11,25,13.10
2010,10,19,11,26,13.10
2010,10,19,11,27,13.10
2010,10,19,11,28,13.20
2010,10,19,11,29,13.20
2010,10,19,11,30,13.20
2010,10,19,11,31,13.30
2010,10,19,11,32,13.30
2010,10,19,11,33,13.20
2010,10,19,11,34,13.20
2010,10,19,11,35,13.30
2010,10,19,11,36,13.30
2010,10,19,11,37,13.40
2010,10,19,11,38,13.50
2010,10,19,11,39,13.60
2010,10,19,11,40,13.70
2010,10,19,11,41,13.80
2010,10,19,11,42,13.90
2010,10,19,11,43,13.90
2010,10,19,11,44,14.00
2010,10,19,11,45,14.10
2010,10,19,11,46,14.20
2010,10,19,11,47,14.20
2010,10,19,11,48,14.20
2010,10,19,11,49,14.20
2010,10,19,11,50,14.30
2010,10,19,11,51,14.30
2010,10,19,11,52,14.20
2010,10,19,11,53,14.20
2010,10,19,11,54,14.20
2010,10,19,11,55,14.20
2010,10,19,11,56,14.10
2010,10,19,11,57,14.10
2010,10,19,11,58,14.10
2010,10,19,11,59,14.10
2010,10,19,12,00,14.10
2010,10,19,12,01,14.10
2010,10,19,12,02,14.10
2010,10,19,12,03,14.20
2010,10,19,12,04,14.20
2010,10,19,12,05,14.20
2010,10,19,12,06,14.20
2010,10,19,12,07,14.20
2010,10,19,12,08,14.20
2010,10,19,12,09,14.30
2010,10,19,12,10,14.30
2010,10,19,12,11,14.40
2010,10,19,12,12,14.40
2010,10,19,12,13,14.40
2010,10,19,12,14,14.40
2010,10,19,12,15,14.40
2010,10,19,12,16,14.40
2010,10,19,12,17,14.40
2010,10,19,12,18,14.40
2010,10,19,12,19,14.30
2010,10,19,12,20,14.30
2010,10,19,12,21,14.30
2010,10,19,12,22,14.40
2010,10,19,12,23,14.50
2010,10,19,12,24,14.50
2010,10,19,12,25,14.60
2010,10,19,12,26,14.80
2010,10,19,12,27,14.80
2010,10,19,12,28,14.80
2010,10,19,12,29,14.80
2010,10,19,12,30,14.90
2010,10,19,12,31,15.00
2010,10,19,12,32,15.10
2010,10,19,12,33,15.20
2010,10,19,12,34,15.30
2010,10,19,12,35,15.30
2010,10,19,12,36,15.30
2010,10,19,12,37,15.30
2010,10,19,12,38,15.30
2010,10,19,12,39,15.50
2010,10,19,12,40,15.50
2010,10,19,12,41,15.70
2010,10,19,12,42,15.80
2010,10,19,12,43,15.80
2010,10,19,12,44,15.70
2010,10,19,12,45,15.60
2010,10,19,12,46,15.50
2010,10,19,12,47,15.50
2010,10,19,12,48,15.50
2010,10,19,12,49,15.50
2010,10,19,12,50,15.60
2010,10,19,12,51,15.60
2010,10,19,12,52,15.70
2010,10,19,12,53,15.70
2010,10,19,12,54,15.70
2010,10,19,12,55,15.70
2010,10,19,12,56,15.60
2010,10,19,12,57,15.70
2010,10,19,12,58,15.80
2010,10,19,12,59,15.80
2010,10,19,13,00,15.80
2010,10,19,13,01,15.90
2010,10,19,13,02,16.00
2010,10,19,13,03,16.10
2010,10,19,13,04,16.10
2010,10,19,13,05,16.20
2010,10,19,13,06,16.30
2010,10,19,13,07,16.40
2010,10,19,13,08,16.60
2010,10,19,13,09,16.60
2010,10,19,13,10,16.70
2010,10,19,13,11,16.60
2010,10,19,13,12,16.60
2010,10,19,13,13,16.50
2010,10,19,13,14,16.30
2010,10,19,13,15,16.30
2010,10,19,13,16,16.30
2010,10,19,13,17,16.20
2010,10,19,13,18,16.10
2010,10,19,13,19,16.10
2010,10,19,13,20,16.10
2010,10,19,13,21,16.10
2010,10,19,13,22,16.00
2010,10,19,13,23,15.90
2010,10,19,13,24,16.00
2010,10,19,13,25,16.10
2010,10,19,13,26,16.20
2010,10,19,13,27,16.30
2010,10,19,13,28,16.30
2010,10,19,13,29,16.30
2010,10,19,13,30,16.20
2010,10,19,13,31,16.10
2010,10,19,13,32,16.10
2010,10,19,13,33,16.10
2010,10,19,13,34,16.20
2010,10,19,13,35,16.30
2010,10,19,13,36,16.40
2010,10,19,13,37,16.60
2010,10,19,13,38,16.70
2010,10,19,13,39,16.80
2010,10,19,13,40,16.90
2010,10,19,13,41,16.90
2010,10,19,13,42,17.00
2010,10,19,13,43,17.10
2010,10,19,13,44,17.20
2010,10,19,13,45,17.20
2010,10,19,13,46,17.20
2010,10,19,13,47,17.20
2010,10,19,13,48,17.20
2010,10,19,13,49,17.20
2010,10,19,13,50,17.20
2010,10,19,13,51,17.20
2010,10,19,13,52,17.10
2010,10,19,13,53,17.00
2010,10,19,13,54,16.90
2010,10,19,13,55,17.00
2010,10,19,13,56,17.00
2010,10,19,13,57,17.10
2010,10,19,13,58,17.10
2010,10,19,13,59,17.00
2010,10,19,14,00,17.00
2010,10,19,14,01,16.90
2010,10,19,14,02,16.90
2010,10,19,14,03,16.80
2010,10,19,14,04,16.70
2010,10,19,14,05,16.70
2010,10,19,14,06,16.70
2010,10,19,14,07,16.80
2010,10,19,14,08,16.80
2010,10,19,14,09,16.80
2010,10,19,14,10,16.70
2010,10,19,14,11,16.50
2010,10,19,14,12,16.40
2010,10,19,14,13,16.40
2010,10,19,14,14,16.40
2010,10,19,14,15,16.40
2010,10,19,14,16,16.60
2010,10,19,14,17,16.70
2010,10,19,14,18,16.70
2010,10,19,14,19,16.70
2010,10,19,14,20,16.70
2010,10,19,14,21,16.70
2010,10,19,14,22,16.70
2010,10,19,14,23,16.70
2010,10,19,14,24,16.80
2010,10,19,14,25,16.90
2010,10,19,14,26,17.00
2010,10,19,14,27,17.00
2010,10,19,14,28,17.10
2010,10,19,14,29,17.20
2010,10,19,14,30,17.30
2010,10,19,14,31,17.30
2010,10,19,14,32,17.30
2010,10,19,14,33,17.40
2010,10,19,14,34,17.50
2010,10,19,14,35,17.60
2010,10,19,14,36,17.70
2010,10,19,14,37,17.70
2010,10,19,14,38,17.80
2010,10,19,14,39,17.90
2010,10,19,14,40,17.90
2010,10,19,14,41,17.90
2010,10,19,14,42,17.90
2010,10,19,14,43,17.90
2010,10,19,14,44,17.90
2010,10,19,14,45,17.90
2010,10,19,14,46,17.90
2010,10,19,14,47,17.90
2010,10,19,14,48,17.90
2010,10,19,14,49,17.90
2010,10,19,14,50,17.90
2010,10,19,14,51,18.00
2010,10,19,14,52,18.00
2010,10,19,14,53,17.90
2010,10,19,14,54,17.90
2010,10,19,14,55,17.90
2010,10,19,14,56,17.90
2010,10,19,14,57,17.90
2010,10,19,14,58,17.90
2010,10,19,14,59,17.90
2010,10,19,15,00,17.90
2010,10,19,15,01,17.80
2010,10,19,15,02,17.70
2010,10,19,15,03,17.60
2010,10,19,15,04,17.60
2010,10,19,15,05,17.50
2010,10,19,15,06,17.50
2010,10,19,15,07,17.50
2010,10,19,15,08,17.30
2010,10,19,15,09,17.30
2010,10,19,15,10,17.30
2010,10,19,15,11,17.30
2010,10,19,15,12,17.30
2010,10,19,15,13,17.40
2010,10,19,15,14,17.40
2010,10,19,15,15,17.50
2010,10,19,15,16,17.50
2010,10,19,15,17,17.50
2010,10,19,15,18,17.50
2010,10,19,15,19,17.60
2010,10,19,15,20,17.60
2010,10,19,15,21,17.70
2010,10,19,15,22,17.70
2010,10,19,15,23,17.70
2010,10,19,15,24,17.70
2010,10,19,15,25,17.80
2010,10,19,15,26,17.80
2010,10,19,15,27,17.80
2010,10,19,15,28,17.90
2010,10,19,15,29,17.80
2010,10,19,15,30,17.90
2010,10,19,15,31,17.90
2010,10,19,15,32,17.90
2010,10,19,15,33,18.00
2010,10,19,15,34,18.10
2010,10,19,15,35,18.10
2010,10,19,15,36,18.20
2010,10,19,15,37,18.20
2010,10,19,15,38,18.10
2010,10,19,15,39,18.00
2010,10,19,15,40,17.90
2010,10,19,15,41,17.90
2010,10,19,15,42,17.90
2010,10,19,15,43,17.90
2010,10,19,15,44,17.90
2010,10,19,15,45,17.90
2010,10,19,15,46,17.90
2010,10,19,15,47,17.90
2010,10,19,15,48,18.00
2010,10,19,15,49,18.00
2010,10,19,15,50,17.90
2010,10,19,15,51,17.90
2010,10,19,15,52,17.90
2010,10,19,15,53,17.90
2010,10,19,15,54,18.00
2010,10,19,15,55,18.10
2010,10,19,15,56,18.10
2010,10,19,15,57,18.00
2010,10,19,15,58,17.90
2010,10,19,15,59,17.90
2010,10,19,16,00,17.90
2010,10,19,16,01,18.00
2010,10,19,16,02,18.10
2010,10,19,16,03,18.10
2010,10,19,16,04,18.20
2010,10,19,16,05,18.20
2010,10,19,16,06,18.10
2010,10,19,16,07,18.10
2010,10,19,16,08,18.10
2010,10,19,16,09,18.20
2010,10,19,16,10,18.20
2010,10,19,16,11,18.20
2010,10,19,16,12,18.20
2010,10,19,16,13,18.20
2010,10,19,16,14,18.20
2010,10,19,16,15,18.20
2010,10,19,16,16,18.20
2010,10,19,16,17,18.20
2010,10,19,16,18,18.20
2010,10,19,16,19,18.20
2010,10,19,16,20,18.20
2010,10,19,16,21,18.20
2010,10,19,16,22,18.20
2010,10,19,16,23,18.20
2010,10,19,16,24,18.20
2010,10,19,16,25,18.20
2010,10,19,16,26,18.20
2010,10,19,16,27,18.20
2010,10,19,16,28,18.20
2010,10,19,16,29,18.20
2010,10,19,16,30,18.20
2010,10,19,16,31,18.20
2010,10,19,16,32,18.10
2010,10,19,16,33,18.10
2010,10,19,16,34,18.10
2010,10,19,16,35,18.00
2010,10,19,16,36,17.90
2010,10,19,16,40,18.00
2010,10,19,16,41,17.90
2010,10,19,16,42,17.90
2010,10,19,16,43,17.90
2010,10,19,16,44,17.90
2010,10,19,16,45,17.90
2010,10,19,16,46,17.90
2010,10,19,16,47,17.90
2010,10,19,16,48,17.90
2010,10,19,16,49,17.90
2010,10,19,16,50,17.90
2010,10,19,16,51,18.00
2010,10,19,16,52,18.10
2010,10,19,16,53,18.10
2010,10,19,16,54,18.10
2010,10,19,16,55,18.10
2010,10,19,16,56,17.90
2010,10,19,16,57,17.90
2010,10,19,16,58,17.80
2010,10,19,16,59,17.80
2010,10,19,17,00,17.70
2010,10,19,17,01,17.70
2010,10,19,17,02,17.70
2010,10,19,17,03,17.60
2010,10,19,17,04,17.60
2010,10,19,17,05,17.70
2010,10,19,17,06,17.70
2010,10,19,17,07,17.80
2010,10,19,17,08,17.90
2010,10,19,17,09,17.90
2010,10,19,17,10,17.90
2010,10,19,17,11,17.90
2010,10,19,17,12,17.90
2010,10,19,17,13,17.80
2010,10,19,17,14,17.70
2010,10,19,17,15,17.70
2010,10,19,17,16,17.70
2010,10,19,17,17,17.70
2010,10,19,17,18,17.70
2010,10,19,17,19,17.70
2010,10,19,17,20,17.80
2010,10,19,17,21,17.80
2010,10,19,17,22,17.80
2010,10,19,17,23,17.80
2010,10,19,17,24,17.80
2010,10,19,17,25,17.90
2010,10,19,17,26,17.90
2010,10,19,17,27,17.90
2010,10,19,17,28,17.90
2010,10,19,17,29,17.90
2010,10,19,17,30,17.90
2010,10,19,17,31,17.90
2010,10,19,17,32,17.90
2010,10,19,17,33,17.80
2010,10,19,17,34,17.80
2010,10,19,17,35,17.70
2010,10,19,17,36,17.70
2010,10,19,17,37,17.70
2010,10,19,17,38,17.60
2010,10,19,17,39,17.60
2010,10,19,17,40,17.60
2010,10,19,17,41,17.50
2010,10,19,17,42,17.40
2010,10,19,17,43,17.40
2010,10,19,17,44,17.40
2010,10,19,17,45,17.30
2010,10,19,17,46,17.30
2010,10,19,17,47,17.30